time_stamp(utc),avg(mph),gust(mph),direction(deg),12m_air_temp(f),sonic_u(cm/s),sonic_v(cm/s),sonic_w(cm/s),pressure,2m_air_temp(f),pyranometer(W/m^2)
"2017-12-01 00:02:42+00",7.8,8.8,,50.7,94,-313,-7,1017.66,48.9,0
"2017-12-01 00:07:42+00",7.5,7.5,,50.5,113,-301,-6,1017.65,49,0
"2017-12-01 00:12:42+00",8.1,9.1,,50.5,124,-320,-7,1017.61,49,0
"2017-12-01 00:17:42+00",8.2,9.2,,50.5,104,-328,-10,1017.52,49.1,0
"2017-12-01 00:22:42+00",7.4,8.4,,50.6,62,-304,-12,1017.58,49.2,0
"2017-12-01 00:27:42+00",7.5,8.5,,50.6,66,-305,-10,1017.5,49.2,0
"2017-12-01 00:32:42+00",7.5,8.5,,50.6,54,-301,-1,1017.47,49.3,0
"2017-12-01 00:37:42+00",8.2,9.2,,50.6,60,-343,-10,1017.29,49.3,0
"2017-12-01 00:42:42+00",7.6,8.6,,50.7,30,-315,-5,1017.36,49.2,0
"2017-12-01 00:47:42+00",7.5,8.5,,50.7,31,-317,-11,1017.31,49.1,0
"2017-12-01 00:52:42+00",7.6,8.6,,50.8,23,-320,-8,1017.3,49.1,0
"2017-12-01 00:57:42+00",7.4,8.4,,50.9,43,-313,-11,1017.35,49,0
"2017-12-01 01:02:42+00",7.5,7.5,,50.8,28,-313,-10,1017.22,49,0
"2017-12-01 01:07:42+00",7.4,8.4,,50.8,24,-310,-9,1017.21,48.9,0
"2017-12-01 01:12:42+00",7.4,8.4,,50.8,20,-314,-6,1017.14,49,0
"2017-12-01 01:17:42+00",7.3,8.3,,50.8,12,-311,-7,1017.11,49,0
"2017-12-01 01:22:42+00",7.4,8.4,,50.8,-7,-309,-7,1017.2,49.1,0
"2017-12-01 01:27:42+00",7.6,8.6,,50.9,-22,-313,-7,1017.11,49.4,0
"2017-12-01 01:32:42+00",8.8,9.8,,50.9,16,-370,-10,1017.02,49.4,0
"2017-12-01 01:37:42+00",8.9,8.9,,50.9,50,-372,-12,1016.88,49,0
"2017-12-01 01:42:42+00",8.5,9.5,,50.8,62,-362,-11,1016.88,48.8,0
"2017-12-01 01:47:42+00",8.7,9.7,,50.9,36,-365,-10,1016.97,48.8,0
"2017-12-01 01:52:42+00",8.6,9.6,,50.9,30,-358,-8,1016.89,49,0
"2017-12-01 01:57:42+00",8.5,9.5,,51,41,-359,-11,1016.8,48.9,0
"2017-12-01 02:02:42+00",7.9,8.9,,50.9,26,-332,-9,1016.91,48.8,0
"2017-12-01 02:07:42+00",7.9,8.9,,50.9,38,-329,-11,1016.86,48.8,0
"2017-12-01 02:12:42+00",6.8,7.8,,50.9,-28,-290,-7,1017.07,49,0
"2017-12-01 02:17:42+00",7.4,8.4,,50.7,-83,-298,-8,1017.07,48.8,0
"2017-12-01 02:22:42+00",7.9,9.9,,50.6,-60,-324,-9,1017.01,48.6,0
"2017-12-01 02:27:42+00",7.4,8.4,,50.6,-47,-299,-2,1017.03,48.7,0
"2017-12-01 02:32:42+00",5.7,5.7,,50.2,-91,-218,-2,1017.12,48.4,0
"2017-12-01 02:37:42+00",6.9,7.9,,50.2,-67,-279,-8,1017.07,48.3,0
"2017-12-01 02:42:42+00",7.1,7.1,,50.2,-76,-286,-5,1017.02,48.3,0
"2017-12-01 02:47:42+00",4.9,5.9,,49.7,-142,-168,2,1017.04,48.1,0
"2017-12-01 02:52:42+00",6.6,6.6,,49.9,-131,-247,0,1017.08,47.6,0
"2017-12-01 02:57:42+00",7.0,7.0,,50.1,-125,-269,-4,1016.98,47.3,0
"2017-12-01 03:02:42+00",7.5,7.5,,50.1,-134,-288,-6,1017.02,47.1,0
"2017-12-01 03:07:42+00",7.8,8.8,,50.2,-155,-296,-4,1016.94,46.9,0
"2017-12-01 03:12:42+00",7.7,8.7,,50.2,-168,-287,-3,1016.95,46.7,0
"2017-12-01 03:17:42+00",6.0,7.0,,49.8,-190,-206,3,1016.98,46.6,0
"2017-12-01 03:22:42+00",5.9,6.9,,49.7,-196,-197,4,1017.04,46.4,0
"2017-12-01 03:27:42+00",6.8,6.8,,49.6,-212,-179,3,1016.99,46.3,0
"2017-12-01 03:32:42+00",5.0,5.0,,49.6,-155,-173,1,1016.94,46.4,0
"2017-12-01 03:37:42+00",5.1,6.1,,49.7,-168,-176,0,1016.8,46.6,0
"2017-12-01 03:42:42+00",6.2,6.2,,49.9,-158,-213,0,1016.72,46.9,0
"2017-12-01 03:47:42+00",6.2,6.2,,50.1,-177,-208,2,1016.76,47,0
"2017-12-01 03:52:42+00",6.4,6.4,,50.2,-162,-223,1,1016.71,47.1,0
"2017-12-01 03:57:42+00",6.5,7.5,,50.3,-181,-217,3,1016.8,47.2,0
"2017-12-01 04:02:42+00",5.7,5.7,,50.4,-181,-201,2,1016.83,47.1,0
"2017-12-01 04:07:42+00",6.5,7.5,,50.5,-165,-225,0,1016.72,47.2,0
"2017-12-01 04:12:42+00",6.6,6.6,,50.7,-166,-248,-1,1016.69,47.4,0
"2017-12-01 04:17:42+00",7.1,7.1,,51,-181,-250,0,1016.65,47.5,0
"2017-12-01 04:22:42+00",6.6,6.6,,51.1,-170,-230,0,1016.65,47.7,0
"2017-12-01 04:27:42+00",6.2,6.2,,51,-166,-207,2,1016.59,47.7,0
"2017-12-01 04:32:42+00",3.8,4.8,,50.4,-141,-72,12,1016.66,47.6,0
"2017-12-01 04:37:42+00",3.6,4.6,,50,-147,-73,6,1016.52,47.5,0
"2017-12-01 04:42:42+00",3.5,3.5,,49.8,-124,-73,0,1016.56,47.4,0
"2017-12-01 04:47:42+00",4.1,5.1,,49.8,-126,-120,1,1016.39,47.4,0
"2017-12-01 04:52:42+00",4.8,4.8,,49.8,-164,-119,2,1016.37,47.4,0
"2017-12-01 04:57:42+00",4.8,4.8,,49.9,-179,-104,3,1016.46,47.5,0
"2017-12-01 05:02:42+00",5.2,5.2,,49.5,-205,-66,8,1016.44,47.5,0
"2017-12-01 05:07:42+00",5.5,5.5,,49.6,-252,-109,10,1016.35,47.3,0
"2017-12-01 05:12:42+00",6.2,6.2,,49.8,-203,-169,5,1016.2,47.3,0
"2017-12-01 05:17:42+00",5.3,6.3,,49.6,-169,-162,0,1015.97,47.4,0
"2017-12-01 05:22:42+00",6.9,7.9,,49.6,-207,-228,2,1016.04,47.4,0
"2017-12-01 05:27:42+00",6.7,7.7,,49.7,-200,-230,-3,1016.04,47.6,0
"2017-12-01 05:32:42+00",6.4,6.4,,49.7,-128,-237,-7,1016.01,47.8,0
"2017-12-01 05:37:42+00",7.5,8.5,,49.9,-119,-294,-6,1015.88,48,0
"2017-12-01 05:42:42+00",8.1,9.1,,50.1,-112,-322,-7,1015.81,48.3,0
"2017-12-01 05:47:42+00",7.8,9.8,,50,-82,-315,-6,1015.75,48.6,0
"2017-12-01 05:52:42+00",6.6,6.6,,49.8,-96,-265,-4,1015.82,48.6,0
"2017-12-01 05:57:42+00",5.3,5.3,,49.6,-93,-202,-1,1015.82,48.5,0
"2017-12-01 06:02:42+00",5.8,5.8,,49.9,-102,-219,-3,1015.83,48.4,0
"2017-12-01 06:07:42+00",6.8,7.8,,50.5,-92,-270,-6,1015.69,48.6,0
"2017-12-01 06:12:42+00",5.7,5.7,,50.8,-105,-214,-5,1015.74,48.8,0
"2017-12-01 06:17:42+00",5.5,6.5,,51,-71,-219,-3,1015.74,48.9,0
"2017-12-01 06:22:42+00",5.4,5.4,,51.1,-67,-215,-6,1015.66,49.2,0
"2017-12-01 06:27:42+00",5.2,5.2,,51.3,-94,-193,-3,1015.71,49.4,0
"2017-12-01 06:32:42+00",5.6,6.6,,51.4,-109,-206,-2,1015.72,49.4,0
"2017-12-01 06:37:42+00",5.8,6.8,,51.6,-109,-215,-2,1015.74,49.5,0
"2017-12-01 06:42:42+00",5.1,6.1,,51.7,-130,-180,3,1015.79,49.6,0
"2017-12-01 06:47:42+00",4.5,4.5,,51.5,-114,-155,2,1015.74,49.5,0
"2017-12-01 06:52:42+00",4.0,4.0,,51.3,-130,-137,1,1015.8,49.4,0
"2017-12-01 06:57:42+00",4.3,4.3,,51.3,-140,-149,2,1015.76,49.3,0
"2017-12-01 07:02:42+00",4.6,5.6,,51.2,-163,-106,7,1015.85,49.2,0
"2017-12-01 07:07:42+00",5.3,5.3,,51.2,-191,-118,5,1015.85,49,0
"2017-12-01 07:12:42+00",4.0,5.0,,51.1,-167,-68,9,1015.85,48.8,0
"2017-12-01 07:17:42+00",4.9,4.9,,50.8,-202,-74,6,1015.76,48.7,0
"2017-12-01 07:22:42+00",6.6,7.6,,50.9,-214,-207,4,1015.81,48.6,0
"2017-12-01 07:27:42+00",6.5,7.5,,50.6,-257,-130,9,1015.83,48.6,0
"2017-12-01 07:32:42+00",6.5,7.5,,50.7,-255,-139,4,1015.8,48.6,0
"2017-12-01 07:37:42+00",5.5,6.5,,50.6,-231,-35,12,1015.86,48.5,0
"2017-12-01 07:42:42+00",5.7,6.7,,50.4,-240,-89,8,1015.86,48.4,0
"2017-12-01 07:47:42+00",6.7,7.7,,50.6,-242,-156,10,1015.83,48.4,0
"2017-12-01 07:52:42+00",9.6,10.6,,51,-332,-244,8,1015.8,48.6,0
"2017-12-01 07:57:42+00",8.4,9.4,,51.1,-330,-183,11,1015.8,48.8,0
"2017-12-01 08:02:42+00",8.8,9.8,,50.8,-369,-127,13,1015.93,48.6,0
"2017-12-01 08:07:42+00",9.0,9.0,,50.4,-384,-44,11,1016.04,48.2,0
"2017-12-01 08:12:42+00",9.0,9.0,,49.9,-396,82,23,1016.1,48.1,0
"2017-12-01 08:17:42+00",9.2,10.2,,49.9,-370,173,27,1016.16,47.9,0
"2017-12-01 08:22:42+00",10.6,11.6,,49.6,-395,273,23,1016.21,47.8,0
"2017-12-01 08:27:42+00",11.3,12.3,,49.7,-422,261,33,1016.27,48,0
"2017-12-01 08:32:42+00",10.5,11.5,,49.1,-373,278,29,1016.3,48.1,0
"2017-12-01 08:37:42+00",10.8,11.8,,48.9,-421,223,31,1016.4,48.1,0
"2017-12-01 08:42:42+00",10.5,11.5,,48.6,-409,222,36,1016.38,47.9,0
"2017-12-01 08:47:42+00",9.3,10.3,,48.3,-363,186,27,1016.39,47.7,0
"2017-12-01 08:52:42+00",8.5,10.5,,48.1,-348,158,24,1016.41,47.5,0
"2017-12-01 08:57:42+00",8.3,9.3,,48,-325,168,22,1016.44,47.3,0
"2017-12-01 09:02:42+00",7.8,8.8,,47.9,-293,193,21,1016.54,47,0
"2017-12-01 09:07:42+00",8.4,9.4,,47.8,-304,208,23,1016.58,46.9,0
"2017-12-01 09:12:42+00",9.5,10.5,,47.7,-350,229,18,1016.63,46.8,0
"2017-12-01 09:17:42+00",9.2,11.2,,47.6,-329,247,27,1016.79,46.7,0
"2017-12-01 09:22:42+00",8.9,10.9,,47.5,-311,245,31,1016.73,46.8,0
"2017-12-01 09:27:42+00",8.5,8.5,,47.3,-277,248,29,1016.8,46.6,0
"2017-12-01 09:32:42+00",7.1,7.1,,47.2,-223,212,24,1016.94,46.4,0
"2017-12-01 09:37:42+00",6.8,7.8,,47,-211,213,17,1017.05,46.2,0
"2017-12-01 09:42:42+00",7.4,8.4,,47,-227,233,21,1017.11,46.1,0
"2017-12-01 09:47:42+00",7.7,8.7,,46.9,-235,252,21,1017.12,46,0
"2017-12-01 09:52:42+00",8.6,9.6,,46.8,-258,274,29,1017.24,45.9,0
"2017-12-01 09:57:42+00",8.9,9.9,,46.7,-277,273,31,1017.22,46,0
"2017-12-01 10:02:42+00",10.0,12.0,,46.7,-324,308,34,1017.35,46.1,0
"2017-12-01 10:07:42+00",10.4,11.4,,46.7,-332,320,28,1017.43,46.1,0
"2017-12-01 10:12:42+00",10.8,12.8,,46.6,-355,322,37,1017.44,46,0
"2017-12-01 10:17:42+00",11.6,12.6,,46.5,-382,351,37,1017.56,46,0
"2017-12-01 10:22:42+00",11.8,12.8,,46.4,-392,350,42,1017.69,45.9,0
"2017-12-01 10:27:42+00",11.5,14.5,,46.3,-379,356,46,1017.76,45.9,0
"2017-12-01 10:32:42+00",13.1,15.1,,46.3,-422,396,39,1017.9,45.8,0
"2017-12-01 10:37:42+00",11.9,13.9,,46.3,-364,371,51,1018.05,45.7,0
"2017-12-01 10:42:42+00",14.9,16.9,,46.4,-439,496,48,1018.08,45.7,0
"2017-12-01 10:47:42+00",15.1,17.1,,46.4,-426,513,37,1018.27,45.6,0
"2017-12-01 10:52:42+00",14.1,16.1,,46.3,-388,505,39,1018.39,45.6,0
"2017-12-01 10:57:42+00",12.9,15.9,,46.3,-361,448,53,1018.44,45.6,0
"2017-12-01 11:02:42+00",13.7,16.7,,46.2,-359,497,41,1018.57,45.5,0
"2017-12-01 11:07:42+00",14.0,16.0,,46.2,-344,495,38,1018.68,45.4,0
"2017-12-01 11:12:42+00",14.9,15.9,,46.1,-371,553,37,1018.86,45.4,0
"2017-12-01 11:17:42+00",14.3,16.3,,45.9,-340,550,44,1018.94,45.2,0
"2017-12-01 11:22:42+00",13.5,15.5,,45.8,-307,507,37,1019.2,45.1,0
"2017-12-01 11:27:42+00",14.4,16.4,,45.7,-286,562,36,1019.27,45,0
"2017-12-01 11:32:42+00",14.0,17.0,,45.6,-280,542,40,1019.35,44.9,0
"2017-12-01 11:37:42+00",13.3,15.3,,45.4,-262,516,27,1019.45,44.7,0
"2017-12-01 11:42:42+00",13.3,15.3,,45.3,-291,502,21,1019.4,44.6,0
"2017-12-01 11:47:42+00",12.3,14.3,,45.1,-273,482,38,1019.61,44.4,0
"2017-12-01 11:52:42+00",12.4,14.4,,45,-252,483,32,1019.6,44.3,0
"2017-12-01 11:57:42+00",12.6,14.6,,45,-260,493,33,1019.74,44.2,0
"2017-12-01 12:02:42+00",12.0,13.0,,44.7,-248,471,25,1019.93,44.1,0
"2017-12-01 12:07:42+00",11.1,13.1,,44.6,-269,412,39,1019.97,43.9,0
"2017-12-01 12:12:42+00",13.2,14.2,,44.5,-308,496,26,1020.02,43.8,0
"2017-12-01 12:17:42+00",11.7,13.7,,44.3,-271,436,31,1020.13,43.7,0
"2017-12-01 12:22:42+00",11.9,13.9,,44.3,-261,458,25,1020.1,43.7,0
"2017-12-01 12:27:42+00",10.5,13.5,,44.3,-213,404,33,1020.26,43.8,0
"2017-12-01 12:32:42+00",10.6,12.6,,44.3,-221,402,28,1020.3,44,1
"2017-12-01 12:37:42+00",10.6,12.6,,44.3,-200,425,30,1020.39,44.2,6.2
"2017-12-01 12:42:42+00",11.8,13.8,,44.3,-221,474,38,1020.4,44.4,10.9
"2017-12-01 12:47:42+00",11.8,13.8,,44.5,-195,475,23,1020.54,44.7,18.7
"2017-12-01 12:52:42+00",11.7,13.7,,44.5,-222,456,34,1020.65,44.9,28.4
"2017-12-01 12:57:42+00",12.3,14.3,,44.6,-233,476,20,1020.7,45.2,38.7
"2017-12-01 13:02:42+00",11.7,13.7,,44.7,-216,460,19,1020.76,45.5,47.4
"2017-12-01 13:07:42+00",12.3,13.3,,44.8,-217,494,18,1020.8,45.7,57.9
"2017-12-01 13:12:42+00",11.9,13.9,,45.1,-142,503,29,1020.88,46,65.3
"2017-12-01 13:17:42+00",15.2,17.2,,45.5,-208,623,27,1020.86,46.3,74.4
"2017-12-01 13:22:42+00",11.2,13.2,,45.4,-258,417,31,1020.84,46.5,80.7
"2017-12-01 13:27:42+00",13.1,16.1,,45.2,-297,488,44,1020.87,46.6,89.1
"2017-12-01 13:32:42+00",11.4,13.4,,45.1,-266,412,31,1020.88,46.4,98.5
"2017-12-01 13:37:42+00",11.4,13.4,,45.2,-265,429,49,1021,46.5,105.9
"2017-12-01 13:42:42+00",12.4,14.4,,45.3,-216,501,31,1021.08,46.7,114.1
"2017-12-01 13:47:42+00",13.3,16.3,,45.3,-172,552,31,1021.08,46.9,122.9
"2017-12-01 13:52:42+00",12.8,15.8,,45.7,-140,547,21,1021.05,47.2,130.9
"2017-12-01 13:57:42+00",12.6,14.6,,45.9,-156,527,14,1021.06,47.6,138.4
"2017-12-01 14:02:42+00",15.3,17.3,,46.1,-82,663,14,1020.93,47.9,146.5
"2017-12-01 14:07:42+00",12.3,16.3,,46.3,-54,535,38,1021,48.2,157.2
"2017-12-01 14:12:42+00",15.0,17.0,,46.6,-71,658,20,1021.04,48.6,162.3
"2017-12-01 14:17:42+00",14.0,15.0,,47,-99,610,13,1021.06,48.8,169.4
"2017-12-01 14:22:42+00",16.7,17.7,,46.8,-165,707,19,1021.15,48.9,174.8
"2017-12-01 14:27:42+00",15.2,18.2,,47.3,-64,670,14,1021.12,49.1,183.6
"2017-12-01 14:32:42+00",15.7,17.7,,47.5,-124,683,11,1021.1,49.3,188.4
"2017-12-01 14:37:42+00",16.2,19.2,,47.7,-86,709,26,1021.15,49.5,189.2
"2017-12-01 14:42:42+00",14.7,16.7,,47.9,46,636,43,1021.18,49.7,199.1
"2017-12-01 14:47:42+00",14.1,16.1,,47.9,-75,614,20,1021.21,50,204.7
"2017-12-01 14:52:42+00",15.6,18.6,,48.1,-37,679,37,1021.28,50.1,207.4
"2017-12-01 14:57:42+00",17.4,19.4,,48.3,-157,754,25,1021.22,50.1,216.4
"2017-12-01 15:02:42+00",12.6,15.6,,48.6,-25,554,37,1021.38,50.4,220.8
"2017-12-01 15:07:42+00",15.1,18.1,,48.7,-169,641,11,1021.45,50.7,223.8
"2017-12-01 15:12:42+00",16.0,18.0,,49,-81,696,13,1021.48,51.2,228.5
"2017-12-01 15:17:42+00",15.3,18.3,,49.2,-230,629,40,1021.45,51.3,233.1
"2017-12-01 15:22:42+00",16.0,20.0,,49.4,-12,699,26,1021.4,51.3,237.3
"2017-12-01 15:27:42+00",12.4,16.4,,49.6,-63,524,55,1021.29,51.6,238.9
"2017-12-01 15:32:42+00",18.5,20.5,,49.4,60,801,8,1021.33,51.8,245.4
"2017-12-01 15:37:42+00",17.3,19.3,,49.6,-127,751,40,1021.38,51.8,245.7
"2017-12-01 15:42:42+00",18.1,21.1,,49.7,56,783,-3,1021.39,52,252
"2017-12-01 15:47:42+00",16.0,19.0,,50,-33,692,27,1021.44,52.4,259.8
"2017-12-01 15:52:42+00",15.6,16.6,,50,-174,659,12,1021.38,52.7,242.9
"2017-12-01 15:57:42+00",15.5,18.5,,49.9,-38,690,30,1021.47,52.3,127
"2017-12-01 16:02:42+00",15.6,18.6,,50.4,-24,685,41,1021.38,52.6,164
"2017-12-01 16:07:42+00",19.0,22.0,,50,-81,838,28,1021.22,52.3,270.2
"2017-12-01 16:12:42+00",20.8,23.8,,50.2,-158,899,21,1021.07,52.5,257.8
"2017-12-01 16:17:42+00",19.3,24.3,,50.2,-71,850,14,1021.07,52.7,260
"2017-12-01 16:22:42+00",16.4,19.4,,50.5,-129,708,46,1020.92,52.9,253.7
"2017-12-01 16:27:42+00",18.2,20.2,,50.6,5,805,12,1020.77,52.9,237.3
"2017-12-01 16:32:42+00",13.0,14.0,,50.6,36,561,1,1020.71,53,251.6
"2017-12-01 16:37:42+00",15.7,18.7,,50.8,205,637,0,1020.7,53.1,274.4
"2017-12-01 16:42:42+00",17.6,20.6,,50.7,185,726,-8,1020.67,52.9,247.3
"2017-12-01 16:47:42+00",14.3,19.3,,50.6,152,576,5,1020.58,52.4,99.4
"2017-12-01 16:52:42+00",18.7,22.7,,50.5,104,812,1,1020.59,52.2,264.6
"2017-12-01 16:57:42+00",15.6,18.6,,50.6,118,651,7,1020.57,52.2,98.3
"2017-12-01 17:02:42+00",12.4,16.4,,50.6,145,506,23,1020.66,51.9,208.5
"2017-12-01 17:07:42+00",14.1,17.1,,50.7,-89,621,39,1020.64,52.5,272.3
"2017-12-01 17:12:42+00",14.7,20.7,,50.8,1,641,17,1020.6,52.9,271.5
"2017-12-01 17:17:42+00",14.7,17.7,,50.7,22,633,6,1020.59,53.2,271.5
"2017-12-01 17:22:42+00",18.0,21.0,,51,-96,783,17,1020.56,53.6,268.4
"2017-12-01 17:27:42+00",15.2,17.2,,51.1,80,655,7,1020.44,53.5,266.7
"2017-12-01 17:32:42+00",15.2,17.2,,51,-29,667,15,1020.48,53.5,262
"2017-12-01 17:37:42+00",14.8,16.8,,51.4,-4,638,22,1020.5,53.5,259.7
"2017-12-01 17:42:42+00",14.9,16.9,,51.2,-5,662,15,1020.42,53.7,257.3
"2017-12-01 17:47:42+00",10.9,14.9,,51.1,93,461,10,1020.42,53.6,255
"2017-12-01 17:52:42+00",13.9,17.9,,51.6,122,583,-3,1020.38,53.5,253.8
"2017-12-01 17:57:42+00",11.3,15.3,,51.3,183,441,10,1020.31,53.5,250.4
"2017-12-01 18:02:42+00",13.3,16.3,,51.6,83,566,10,1020.37,53.4,249.4
"2017-12-01 18:07:42+00",14.0,15.0,,51.8,-22,608,8,1020.4,54,241.4
"2017-12-01 18:12:42+00",12.0,16.0,,51.7,-27,522,7,1020.32,54,240.6
"2017-12-01 18:17:42+00",9.6,11.6,,51.5,-96,404,9,1020.46,54.2,236.1
"2017-12-01 18:22:42+00",11.5,13.5,,51.6,77,476,28,1020.4,54,231.7
"2017-12-01 18:27:42+00",16.4,18.4,,51.6,142,687,-16,1020.39,53.7,231.5
"2017-12-01 18:32:42+00",10.1,13.1,,51.8,-42,434,33,1020.43,53.8,225.9
"2017-12-01 18:37:42+00",13.6,15.6,,52,-172,574,17,1020.45,54.2,207.3
"2017-12-01 18:42:42+00",13.9,14.9,,51.6,-312,523,25,1020.5,54.3,212.4
"2017-12-01 18:47:42+00",12.4,14.4,,51.6,-139,527,14,1020.51,54.2,207.5
"2017-12-01 18:52:42+00",10.7,12.7,,51.7,-6,463,17,1020.56,54.3,204.3
"2017-12-01 18:57:42+00",12.1,14.1,,51.9,-206,485,13,1020.54,54.5,199.5
"2017-12-01 19:02:42+00",11.6,13.6,,51.9,-320,399,60,1020.6,54.6,158.9
"2017-12-01 19:07:42+00",12.2,14.2,,52.1,-265,473,84,1020.66,54.4,189.5
"2017-12-01 19:12:42+00",13.4,14.4,,51.8,-171,564,23,1020.73,54.2,185.6
"2017-12-01 19:17:42+00",12.3,13.3,,51.7,-216,489,10,1020.83,54.2,171.7
"2017-12-01 19:22:42+00",11.0,13.0,,51.7,-78,468,8,1020.82,54,171
"2017-12-01 19:27:42+00",10.1,12.1,,52,-179,409,25,1020.83,54,157.5
"2017-12-01 19:32:42+00",8.9,9.9,,52,-24,379,26,1020.87,54.2,154
"2017-12-01 19:37:42+00",12.1,13.1,,51.9,-106,530,17,1020.81,53.9,140.1
"2017-12-01 19:42:42+00",12.3,14.3,,51.7,-52,530,9,1020.77,53.8,107.8
"2017-12-01 19:47:42+00",10.8,12.8,,51.9,-28,483,35,1020.8,54,126.9
"2017-12-01 19:52:42+00",9.8,12.8,,51.9,-70,428,46,1020.79,53.9,121
"2017-12-01 19:57:42+00",12.9,14.9,,51.6,-15,569,13,1020.91,53.6,103.7
"2017-12-01 20:02:42+00",12.5,13.5,,51.5,-81,539,14,1021.12,53.3,88.8
"2017-12-01 20:07:42+00",9.2,11.2,,51.6,-121,386,28,1021.17,53.3,104.8
"2017-12-01 20:12:42+00",8.8,10.8,,51.5,-145,358,23,1021.19,53.4,80.4
"2017-12-01 20:17:42+00",11.5,13.5,,51.4,-119,486,11,1021.23,53.1,80
"2017-12-01 20:22:42+00",11.0,13.0,,51.5,13,469,12,1021.28,52.7,74.8
"2017-12-01 20:27:42+00",10.4,12.4,,51.5,-143,432,29,1021.35,52.7,66.7
"2017-12-01 20:32:42+00",10.8,12.8,,51.4,-74,465,23,1021.38,52.9,53.7
"2017-12-01 20:37:42+00",13.2,14.2,,51.2,-129,566,21,1021.5,52.6,46.2
"2017-12-01 20:42:42+00",10.7,11.7,,51,-90,459,24,1021.45,52.2,35.8
"2017-12-01 20:47:42+00",10.9,13.9,,50.9,44,467,7,1021.6,51.7,27.3
"2017-12-01 20:52:42+00",10.7,11.7,,50.9,-48,469,7,1021.63,51.2,16.4
"2017-12-01 20:57:42+00",8.2,9.2,,50.6,-69,345,18,1021.69,50.9,0
"2017-12-01 21:02:42+00",10.5,11.5,,50.6,-73,445,8,1021.77,50.5,0
"2017-12-01 21:07:42+00",8.3,10.3,,50.4,19,359,14,1021.8,50.1,0
"2017-12-01 21:12:42+00",8.2,9.2,,50,-32,353,15,1021.86,49.5,0
"2017-12-01 21:17:42+00",7.4,8.4,,49.9,-43,312,13,1021.79,49.1,0
"2017-12-01 21:22:42+00",7.6,7.6,,49.7,-72,316,9,1021.95,48.7,0
"2017-12-01 21:27:42+00",7.1,8.1,,49.6,-47,301,9,1022.05,48.2,0
"2017-12-01 21:32:42+00",6.6,6.6,,49.3,-34,280,11,1022.17,47.7,0
"2017-12-01 21:37:42+00",7.6,7.6,,49.1,-31,324,14,1022.24,47,0
"2017-12-01 21:42:42+00",7.3,8.3,,49,-29,311,13,1022.29,46.5,0
"2017-12-01 21:47:42+00",7.8,8.8,,49,-21,329,13,1022.24,45.9,0
"2017-12-01 21:52:42+00",8.1,8.1,,49.2,-62,345,10,1022.4,45.5,0
"2017-12-01 21:57:42+00",7.6,7.6,,49.5,-27,322,10,1022.37,45.2,0
"2017-12-01 22:02:42+00",7.8,7.8,,49.5,-13,332,13,1022.57,44.9,0
"2017-12-01 22:07:42+00",8.5,8.5,,49.3,-27,364,16,1022.66,44.5,0
"2017-12-01 22:12:42+00",8.7,8.7,,49.1,-57,371,12,1022.85,44.2,0
"2017-12-01 22:17:42+00",8.9,8.9,,49.1,-28,382,17,1022.99,44.1,0
"2017-12-01 22:22:42+00",7.7,7.7,,49,0,322,8,1022.9,43.8,0
"2017-12-01 22:27:42+00",8.1,8.1,,48.9,19,337,6,1022.96,43.8,0
"2017-12-01 22:32:42+00",7.4,8.4,,48.8,23,310,4,1022.9,44,0
"2017-12-01 22:37:42+00",6.7,6.7,,48.6,32,275,5,1022.87,44.1,0
"2017-12-01 22:42:42+00",5.5,5.5,,48.5,21,223,5,1022.87,44.3,0
"2017-12-01 22:47:42+00",5.9,5.9,,48.3,43,239,7,1022.93,44.4,0
"2017-12-01 22:52:42+00",6.0,7.0,,48.1,64,233,5,1022.99,44.5,0
"2017-12-01 22:57:42+00",5.6,6.6,,47.9,60,214,2,1023.12,44.5,0
"2017-12-01 23:02:42+00",5.4,5.4,,47.8,79,196,2,1023.2,44.5,0
"2017-12-01 23:07:42+00",5.1,6.1,,47.4,66,193,4,1023.34,44.4,0
"2017-12-01 23:12:42+00",5.3,5.3,,47,48,210,1,1023.41,44.3,0
"2017-12-01 23:17:42+00",6.5,7.5,,47,47,265,3,1023.37,44,0
"2017-12-01 23:22:42+00",6.9,7.9,,47,10,285,5,1023.44,43.7,0
"2017-12-01 23:27:42+00",6.6,6.6,,47,18,274,3,1023.45,43.3,0
"2017-12-01 23:32:42+00",6.0,7.0,,47.2,58,243,0,1023.55,43,0
"2017-12-01 23:37:42+00",6.5,7.5,,47.1,59,267,1,1023.4,43,0
"2017-12-01 23:42:42+00",6.8,6.8,,47.3,78,257,-2,1023.33,42.9,0
"2017-12-01 23:47:42+00",6.2,6.2,,47.4,94,228,2,1023.35,43,0
"2017-12-01 23:52:42+00",6.1,7.1,,47.4,79,229,-1,1023.43,43.2,0
"2017-12-01 23:57:42+00",6.7,7.7,,47.4,59,275,-1,1023.41,43.4,0
